DW5164 Weather Reports


time (UTC)temp
C
wind
direction
speed
KPH
gust
KPH
rain 1hr
cm
rain 24hr
cm
rain mn
cm
humidity
%
barometer
mb
20260507034038 10 252 1.6 3.2 0.00 0.28 0.00 95 1010.8
20260507033538 10 232 1.6 1.6 0.00 0.28 0.00 96 1010.8
20260507033038 10 231 0.0 1.6 0.00 0.28 0.00 96 1010.7
20260507032538 10 237 1.6 4.8 0.00 0.28 0.00 96 1010.6
20260507032038 10 221 3.2 4.8 0.00 0.28 0.00 96 1010.6
20260507031538 10 84 0.0 0.0 0.00 0.28 0.00 96 1010.6
20260507031038 10 84 0.0 0.0 0.00 0.28 0.00 96 1010.6
20260507030539 10 84 0.0 0.0 0.00 0.28 0.00 96 1010.7
20260507030038 10 84 0.0 0.0 0.00 0.28 0.00 95 1010.7
20260507025538 10 84 0.0 0.0 0.00 0.28 0.00 96 1010.7
20260507025038 10 84 0.0 0.0 0.00 0.28 0.00 95 1010.6
20260507024538 10 84 0.0 3.2 0.00 0.28 0.00 96 1010.6
20260507024045 11 232 0.0 0.0 0.00 0.28 0.00 96 1010.6
20260507023540 11 232 0.0 0.0 0.00 0.28 0.00 96 1010.6
20260507023056 11 232 0.0 4.8 0.00 0.28 0.00 96 1010.6
20260507022545 11 173 0.0 3.2 0.00 0.28 0.00 96 1010.6
20260507022038 11 77 0.0 0.0 0.00 0.28 0.00 96 1010.6
20260507021539 11 77 0.0 0.0 0.00 0.28 0.00 96 1010.7
20260507021038 11 77 0.0 0.0 0.00 0.28 0.00 96 1010.7
20260507020539 11 77 0.0 0.0 0.00 0.28 0.00 96 1010.7
20260507020038 11 77 0.0 0.0 0.00 0.28 0.00 95 1010.7
20260507015543 11 77 0.0 0.0 0.00 0.28 0.00 95 1010.6
20260507015045 11 77 0.0 0.0 0.00 0.28 0.00 95 1010.6
20260507014537 11 77 0.0 1.6 0.00 0.28 0.00 95 1010.6
20260507014039 11 77 0.0 3.2 0.00 0.28 0.00 95 1010.6
20260507013538 11 77 3.2 4.8 0.00 0.28 0.00 95 1010.6
20260507013038 11 77 3.2 8.0 0.00 0.28 0.00 94 1010.5
20260507012538 11 87 3.2 8.0 0.00 0.28 0.00 94 1010.5
20260507011538 11 277 0.0 0.0 0.00 0.28 0.00 94 1010.5
20260507011038 11 277 0.0 0.0 0.00 0.28 0.00 94 1010.5
20260507005538 11 277 1.6 3.2 0.00 0.28 0.00 93 1010.4
20260507005038 12 17 0.0 0.0 0.00 0.28 0.00 94 1010.5
20260507004538 12 17 1.6 3.2 0.00 0.28 0.00 94 1010.4
20260507004040 12 5 0.0 0.0 0.00 0.28 0.00 94 1010.4
20260507003038 12 143 0.0 0.0 0.00 0.28 0.00 93 1010.3
20260507002538 12 143 0.0 0.0 0.00 0.28 0.00 93 1010.3
20260507002038 12 54 0.0 0.0 0.00 0.28 0.00 93 1010.3
20260507001556 12 54 1.6 3.2 0.00 0.28 0.00 93 1010.3
20260507001038 12 54 0.0 4.8 0.00 0.28 0.00 92 1010.3
20260507000538 12 72 1.6 4.8 0.00 0.28 0.00 91 1010.4
20260507000039 12 72 1.6 4.8 0.00 0.28 0.00 91 1010.4
20260506235537 12 88 3.2 8.0 0.00 0.28 0.00 90 1010.3
20260506235039 12 184 0.0 4.8 0.00 0.28 0.00 90 1010.3
20260506234538 13 210 0.0 3.2 0.00 0.28 0.00 90 1010.3
20260506234040 13 210 1.6 4.8 0.00 0.28 0.00 90 1010.2
20260506233038 13 271 1.6 4.8 0.00 0.28 0.00 90 1010.3
20260506232537 13 268 3.2 4.8 0.00 0.28 0.00 93 1010.3
20260506232037 13 325 0.0 1.6 0.00 0.28 0.00 95 1010.3
20260506231537 13 23 4.8 12.9 0.00 0.28 0.00 96 1010.3
20260506231038 13 131 1.6 8.0 0.00 0.28 0.00 96 1010.3
20260506230538 13 89 3.2 8.0 0.00 0.28 0.00 96 1010.3
20260506230038 13 117 1.6 4.8 0.00 0.28 0.00 96 1010.3
20260506225537 13 55 0.0 4.8 0.00 0.28 0.00 96 1010.2
20260506225038 13 34 1.6 4.8 0.00 0.28 0.00 96 1010.2
20260506224037 13 59 3.2 4.8 0.00 0.28 0.00 96 1010.2
20260506223037 13 95 1.6 4.8 0.00 0.28 0.00 96 1010.3
20260506222540 13 95 0.0 4.8 0.00 0.28 0.00 96 1010.3
20260506222044 13 95 1.6 8.0 0.00 0.28 0.00 96 1010.2
20260506221038 13 67 4.8 8.0 0.00 0.28 0.00 95 1010.2
20260506220037 13 101 3.2 4.8 0.00 0.28 0.28 94 1010.3
20260506215537 14 101 0.0 4.8 0.00 0.28 0.28 94 1010.3
20260506215038 14 121 3.2 4.8 0.00 0.28 0.28 94 1010.3
20260506214540 14 217 0.0 3.2 0.00 0.28 0.28 94 1010.1
20260506214054 15 214 0.0 1.6 0.00 0.28 0.28 94 1010.1
20260506213537 15 287 1.6 4.8 0.00 0.28 0.28 93 1010.2
20260506213037 15 285 0.0 3.2 0.00 0.28 0.28 94 1010.2
20260506212540 15 289 0.0 3.2 0.00 0.28 0.28 95 1010.1
20260506212038 14 190 3.2 4.8 0.00 0.28 0.28 96 1010.2
20260506211536 15 355 1.6 4.8 0.00 0.28 0.28 96 1010.2
20260506211037 15 67 3.2 4.8 0.00 0.28 0.28 96 1010.3
20260506210537 15 67 3.2 4.8 0.00 0.28 0.28 96 1010.2
20260506210037 15 67 1.6 3.2 0.00 0.28 0.28 96 1010.2
20260506205548 15 67 1.6 3.2 0.00 0.28 0.28 96 1010.2
20260506205037 15 68 4.8 4.8 0.00 0.28 0.28 96 1010.2
20260506204537 15 204 1.6 3.2 0.00 0.28 0.28 95 1010.1
20260506204040 15 204 0.0 1.6 0.00 0.28 0.28 95 1010.1
20260506203540 15 204 0.0 3.2 0.00 0.28 0.28 95 1010.0
20260506203042 15 204 3.2 4.8 0.00 0.28 0.28 95 1010.0
20260506202537 15 323 1.6 3.2 0.00 0.28 0.28 95 1009.9
20260506202037 15 323 1.6 4.8 0.00 0.28 0.28 94 1009.9
20260506201537 15 276 3.2 4.8 0.00 0.28 0.28 94 1009.9
20260506200037 16 355 3.2 4.8 0.00 0.28 0.28 94 1009.7
20260506195536 16 5 1.6 3.2 0.00 0.28 0.28 93 1009.7
20260506195038 16 79 4.8 11.3 0.00 0.28 0.28 93 1009.4
20260506193537 16 73 3.2 8.0 0.00 0.28 0.28 93 1009.3
20260506193037 16 80 4.8 8.0 0.00 0.28 0.28 93 1009.2
20260506190037 16 86 12.9 16.1 0.00 0.28 0.28 92 1008.6
20260506185539 16 91 14.5 19.3 0.00 0.28 0.28 92 1008.5
20260506185037 16 82 11.3 20.9 0.00 0.28 0.28 92 1008.5
20260506184537 17 109 6.4 8.0 0.00 0.28 0.28 92 1008.5
20260506184053 17 72 4.8 4.8 0.00 0.28 0.28 91 1008.4
20260506183537 17 90 4.8 8.0 0.00 0.28 0.28 91 1008.3
20260506183036 17 69 3.2 8.0 0.00 0.28 0.28 90 1008.2
20260506182537 17 74 1.6 9.7 0.00 0.28 0.28 90 1008.1
20260506182037 17 63 4.8 12.9 0.00 0.28 0.28 89 1007.9
20260506181540 17 90 4.8 12.9 0.00 0.28 0.28 89 1007.8
20260506181037 17 71 8.0 11.3 0.00 0.28 0.28 89 1007.7
20260506180536 17 95 4.8 12.9 0.00 0.28 0.28 89 1007.7
20260506180036 17 85 8.0 14.5 0.00 0.28 0.28 89 1007.6
20260506175537 17 86 12.9 20.9 0.00 0.28 0.28 89 1007.6
20260506175037 18 80 9.7 24.1 0.00 0.28 0.28 89 1007.6
20260506174538 18 65 11.3 19.3 0.00 0.28 0.28 88 1007.6
20260506174038 18 69 9.7 14.5 0.00 0.28 0.28 87 1007.5
20260506173536 18 91 9.7 19.3 0.00 0.28 0.28 86 1007.4
20260506173037 18 75 9.7 19.3 0.00 0.28 0.28 84 1007.4
20260506172537 18 86 8.0 14.5 0.00 0.28 0.28 82 1007.3
20260506172036 18 80 11.3 16.1 0.00 0.28 0.28 81 1007.3
20260506171536 18 76 8.0 19.3 0.00 0.28 0.28 81 1007.2
20260506171036 18 83 9.7 14.5 0.00 0.28 0.28 80 1007.1
20260506170541 18 81 14.5 20.9 0.00 0.28 0.28 80 1007.1
20260506170039 19 83 14.5 20.9 0.00 0.28 0.28 82 1007.1
20260506165038 19 69 9.7 19.3 0.00 0.28 0.28 85 1007.0
20260506164539 19 75 11.3 19.3 0.00 0.28 0.28 84 1007.0
20260506164036 19 87 9.7 16.1 0.00 0.28 0.28 83 1007.1
20260506163036 19 79 16.1 20.9 0.00 0.28 0.28 82 1007.1
20260506162537 20 85 12.9 24.1 0.00 0.28 0.28 79 1007.1
20260506162036 20 95 12.9 24.1 0.00 0.28 0.28 81 1007.1
20260506161536 20 83 16.1 22.5 0.00 0.28 0.28 80 1007.0
20260506160536 20 86 12.9 19.3 0.00 0.28 0.28 80 1007.1
20260506160036 20 77 11.3 19.3 0.00 0.28 0.28 81 1007.1
20260506155539 20 87 12.9 20.9 0.00 0.28 0.28 82 1007.0
20260506155036 20 76 16.1 22.5 0.00 0.28 0.28 80 1007.0
20260506154536 20 82 9.7 19.3 0.00 0.28 0.28 77 1007.0
20260506154036 20 85 9.7 20.9 0.00 0.28 0.28 80 1007.1
20260506153036 21 38 9.7 14.5 0.00 0.28 0.28 82 1007.0
20260506151536 20 45 14.5 20.9 0.00 0.28 0.28 83 1007.0
20260506151036 20 86 16.1 19.3 0.00 0.28 0.28 83 1007.0
20260506150536 20 67 16.1 20.9 0.00 0.28 0.28 83 1007.1
20260506145037 20 64 12.9 19.3 0.00 0.28 0.28 84 1007.1
20260506144551 20 68 11.3 19.3 0.00 0.28 0.28 84 1007.2
20260506143537 20 76 11.3 16.1 0.00 0.28 0.28 85 1007.4
20260506143036 20 50 9.7 16.1 0.00 0.28 0.28 84 1007.5
20260506142536 20 88 12.9 24.1 0.00 0.28 0.28 83 1007.5
20260506142039 21 99 11.3 24.1 0.00 0.28 0.28 83 1007.4
20260506141035 20 65 16.1 20.9 0.00 0.28 0.28 83 1007.3
20260506140535 20 57 11.3 19.3 0.00 0.28 0.28 85 1007.5
20260506140035 20 78 12.9 16.1 0.00 0.28 0.28 84 1007.7
20260506135038 20 68 9.7 19.3 0.00 0.28 0.28 83 1007.8
20260506134536 20 67 9.7 14.5 0.00 0.28 0.28 83 1007.8
20260506134035 20 67 9.7 19.3 0.00 0.28 0.28 83 1007.9
20260506133536 20 50 14.5 19.3 0.00 0.28 0.28 83 1007.9
20260506133037 20 91 11.3 19.3 0.00 0.28 0.28 84 1008.0
20260506132539 20 68 11.3 20.9 0.00 0.28 0.28 85 1008.1
20260506132036 20 61 9.7 12.9 0.00 0.28 0.28 85 1008.1
20260506131536 20 96 11.3 16.1 0.00 0.28 0.28 83 1008.0
20260506130539 19 66 8.0 11.3 0.00 0.28 0.28 87 1008.2
20260506130035 19 39 9.7 14.5 0.00 0.28 0.28 86 1008.3
20260506125536 19 68 6.4 16.1 0.00 0.28 0.28 87 1008.4
20260506125039 18 64 11.3 16.1 0.00 0.28 0.28 88 1008.4
20260506124537 18 74 11.3 16.1 0.00 0.28 0.28 87 1008.5
20260506124037 18 81 6.4 16.1 0.00 0.28 0.28 87 1008.5
20260506123535 18 77 9.7 19.3 0.00 0.28 0.28 87 1008.5
20260506123054 18 61 9.7 16.1 0.00 0.28 0.28 87 1008.4
20260506122535 18 91 11.3 20.9 0.00 0.28 0.28 88 1008.5
20260506122036 18 92 11.3 19.3 0.00 0.28 0.28 87 1008.5
20260506121535 18 71 11.3 19.3 0.00 0.28 0.28 88 1008.6
20260506121036 18 99 11.3 19.3 0.00 0.28 0.28 88 1008.6
20260506120535 18 90 19.3 25.7 0.00 0.28 0.28 87 1008.5
20260506120035 18 119 11.3 24.1 0.00 0.28 0.28 87 1008.5
20260506115536 18 87 11.3 19.3 0.00 0.28 0.28 88 1008.5
20260506115035 18 54 9.7 20.9 0.00 0.28 0.28 87 1008.5
20260506114535 18 88 17.7 25.7 0.00 0.28 0.28 87 1008.5
20260506114035 18 70 14.5 25.7 0.00 0.28 0.28 86 1008.4
20260506113035 18 99 16.1 27.4 0.00 0.28 0.28 87 1008.3
20260506112035 18 96 20.9 27.4 0.00 0.28 0.28 87 1008.5
20260506111537 18 110 19.3 33.8 0.00 0.28 0.28 88 1008.5
20260506110536 17 102 14.5 24.1 0.00 0.28 0.28 90 1008.6
20260506110052 17 90 11.3 24.1 0.00 0.28 0.28 90 1008.6
20260506105535 17 73 19.3 27.4 0.00 0.28 0.28 90 1008.6
20260506105036 17 92 16.1 25.7 0.00 0.28 0.28 89 1008.8
20260506104535 17 112 12.9 22.5 0.00 0.28 0.28 89 1008.8
20260506104035 17 88 14.5 24.1 0.00 0.28 0.28 89 1008.8
20260506103536 17 94 16.1 25.7 0.00 0.28 0.28 91 1008.8
20260506103036 17 90 20.9 25.7 0.00 0.28 0.28 91 1008.9
20260506102536 17 84 14.5 20.9 0.00 0.28 0.28 92 1008.9
20260506102035 17 89 16.1 22.5 0.00 0.28 0.28 91 1009.0
20260506101535 17 97 14.5 24.1 0.00 0.28 0.28 91 1009.0
20260506100537 17 80 17.7 25.7 0.00 0.28 0.28 92 1008.9
20260506100035 17 80 17.7 24.1 0.00 0.28 0.28 92 1009.0
20260506095535 16 66 16.1 22.5 0.00 0.28 0.28 92 1008.9
20260506095035 16 68 16.1 22.5 0.00 0.28 0.28 93 1008.9
20260506094035 16 65 11.3 16.1 0.00 0.33 0.28 94 1009.2
20260506093535 16 83 12.9 19.3 0.00 0.33 0.28 94 1009.2
20260506093035 16 71 11.3 19.3 0.00 0.33 0.28 94 1009.1
20260506092535 16 86 14.5 24.1 0.00 0.36 0.28 94 1009.1
20260506092035 16 78 9.7 19.3 0.00 0.36 0.28 94 1009.2
20260506091035 16 71 9.7 22.5 0.00 0.38 0.28 94 1009.2
20260506090535 16 60 12.9 19.3 0.00 0.38 0.28 95 1009.2
20260506090035 16 75 11.3 19.3 0.00 0.41 0.28 95 1009.2
20260506085535 16 63 8.0 12.9 0.00 0.43 0.28 95 1009.0
20260506085035 16 72 9.7 12.9 0.00 0.43 0.28 95 1009.2
20260506084542 16 91 9.7 19.3 0.00 0.43 0.28 95 1009.2
20260506084035 16 75 12.9 20.9 0.00 0.46 0.28 95 1009.2
20260506083537 16 69 11.3 16.1 0.00 0.48 0.28 96 1009.2
20260506083035 16 60 8.0 14.5 0.00 0.51 0.28 96 1009.2
20260506082035 15 92 9.7 12.9 0.00 0.51 0.28 96 1009.1
20260506081534 15 91 9.7 19.3 0.00 0.53 0.28 97 1009.1
20260506081035 15 86 8.0 19.3 0.00 0.56 0.28 96 1009.2
20260506080535 15 94 9.7 14.5 0.00 0.56 0.28 97 1009.1
20260506073034 15 109 12.9 19.3 0.00 0.64 0.28 98 1009.1
20260506072035 15 76 8.0 11.3 0.03 0.66 0.28 99 1009.1
20260506071538 15 110 8.0 12.9 0.03 0.66 0.28 99 1009.1
20260506071035 15 80 4.8 16.1 0.03 0.66 0.28 99 1009.1
20260506062034 14 78 9.7 16.1 0.05 0.66 0.25 99 1009.3
20260506061035 14 53 4.8 8.0 0.05 0.66 0.25 99 1009.6
20260506060535 14 42 4.8 11.3 0.08 0.66 0.25 99 1009.4
20260506051034 13 110 8.0 12.9 0.13 0.61 0.20 98 1009.8
20260506050536 13 99 11.3 19.3 0.10 0.58 0.18 98 1009.8
20260506044534 13 100 9.7 12.9 0.10 0.51 0.13 98 1009.7
20260506043533 13 118 8.0 20.9 0.10 0.51 0.10 98 1009.7
20260506043034 13 104 11.3 19.3 0.08 0.48 0.08 98 1009.6
20260506042535 13 100 11.3 19.3 0.08 0.48 0.08 98 1009.4
20260506042034 13 103 14.5 25.7 0.08 0.48 0.08 98 1009.4
20260506041534 13 105 14.5 24.1 0.08 0.48 0.08 98 1009.5
20260506041034 13 112 12.9 24.1 0.08 0.48 0.08 98 1009.5
20260506040534 13 103 14.5 24.1 0.08 0.48 0.08 98 1009.4
20260506040035 13 102 14.5 19.3 0.08 0.48 0.08 98 1009.4
20260506035034 13 103 12.9 24.1 0.05 0.43 0.05 98 1009.4
20260506034534 13 88 11.3 22.5 0.03 0.43 0.03 98 1009.5